Regional Weather Roundup
Issued by NWS

Home | Current Version | Previous Version | Text Only | Print | Product List | Glossary Off
Versions: 1 2 3 4 5 6 7 8 9 10 11 12 13 14 15 16 17 18 19 20 21 22 23 24 25 26 27 28 29 30 31 32 33 34 35 36 37 38 39 40 41 42 43 44 45 46 47 48 49 50

000
ASUS43 KTOP 291659
RWRKS

WEATHER ROUNDUP FOR KANSAS
NATIONAL WEATHER SERVICE GOODLAND KS
1200 PM CDT FRI APR 29 2016

NOTE:  "FAIR" INDICATES FEW OR NO CLOUDS BELOW 12,000 FEET WITH NO
SIGNIFICANT WEATHER AND/OR OBSTRUCTIONS TO VISIBILITY.

KSZ001>006-013>018-027>032-041>047-291800-
NORTHWEST KANSAS

CITY           SKY/WX    TMP DP  RH WIND       PRES   REMARKS
GOODLAND       LGT RAIN  40  38  93 NE21      29.93F WCI  30
HAYS           CLOUDY    43  34  70 NE14      29.98F
HILL CITY      LGT RAIN  43  39  86 NE16      30.02S FOG
RUSSELL        RAIN      44  42  93 NE15      29.96F FOG
$$

KSZ061>065-074>080-084>089-291800-
SOUTHWEST KANSAS

CITY           SKY/WX    TMP DP  RH WIND       PRES   REMARKS
DODGE CITY     RAIN      41  40  96 N18       29.93R FOG
ELKHART          N/A     43  41  93 NE15        N/A
GARDEN CITY    LGT RAIN  40  39  97 NE33G45   29.81F WCI  28
GREAT BEND     CLOUDY    43  37  81 NE18G26   29.91F
LIBERAL        CLOUDY    46  43  87 E25G37    29.79S
$$

KSZ066>073-081>083-090>101-291800-
SOUTHEAST KANSAS

CITY           SKY/WX    TMP DP  RH WIND       PRES   REMARKS
CHANUTE        PTSUNNY   60  49  66 E14G21    29.91F
COFFEYVILLE    CLOUDY    66  53  63 NE14      29.88F
HUTCHINSON     HVY RAIN  46  45  96 N7        29.95R FOG
MEDICINE LODGE   N/A     47  45  93 NE23G33   29.80F
NEWTON         CLOUDY    46  39  76 NE15G25   29.92S
PARSONS        CLOUDY    65  54  67 E9        29.91F
WICHITA INTL   RAIN      49  46  90 NE21G33   29.89S FOG
WICHITA JABRA  LGT RAIN  48  32  53 NE17G26   29.88F
WINFIELD       LGT RAIN  54  50  86 NE22G31   29.81F
$$

KSZ007>012-019>026-033>040-048>060-102>105-291800-
NORTHEAST KANSAS

CITY           SKY/WX    TMP DP  RH WIND       PRES   REMARKS
CONCORDIA      CLOUDY    45  39  79 NE17G23   29.98F
EMPORIA        CLOUDY    52  45  77 NE15G22   29.96F
LAWRENCE       CLOUDY    53  45  74 E13       30.02S
MANHATTAN      LGT RAIN  47  41  80 NE14      29.99F
OLATHE IND     CLOUDY    55  46  71 E10G18    30.02S
OLATHE EXE     PTSUNNY   56  47  71 E8        30.00F
SALINA         LGT RAIN  46  44  93 N13       29.98S
TOPEKA BILLARD CLOUDY    52  44  74 NE13      30.02S
TOPEKA FORBES  CLOUDY    53  45  74 NE7       30.00F
$$




USA.gov is the U.S. government's official web portal to all federal, state and local government web resources and services.